Terminal Aerodrome Forecast
Issued by NWS

Home | Current Version | Previous Version | Text Only | Print | Product List | Glossary Off
Versions: 1 2 3 4 5 6 7 8 9 10 11 12 13 14

000
FTUS45 KGGW 032328
TAFGDV
TAF
KGDV 032328Z 0400/0424 05008KT P6SM FEW200
     FM040400 09006KT P6SM FEW200
     FM041800 19011KT P6SM SKC
      AMD LTD TO CLD VIS AND WIND=

USA.gov is the U.S. government's official web portal to all federal, state and local government web resources and services.